contact:dominique.lefevre@mio.osupytheas.fr, maurice.libes@osupytheas.fr, didier.mallarino@osupytheas.fr
Project:EMSO http://www.emso-fr.org/EMSO-France
Depth: 2436.0 m
Title:EMSO Ligure Ouest : Data MII capteur MICROCAT
DateTime_Computer,Latitude,Longitude,Temperature,Conductivity,Pressure,DateTime_Instrument
DateTime_Computer,Latitude,Longitude,degC,S m-1,dbar,DateTime_Instrument
2022-08-16T00:00:49Z,42.805,6.029,13.3014,4.60055,2470.693,2022-8-16T02:02:38Z
2022-08-16T00:03:52Z,42.805,6.029,13.3011,4.60056,2470.684,2022-8-16T02:05:41Z
2022-08-16T00:06:55Z,42.805,6.029,13.3013,4.60058,2470.707,2022-8-16T02:08:44Z
2022-08-16T00:09:58Z,42.805,6.029,13.3014,4.60057,2470.646,2022-8-16T02:11:47Z
2022-08-16T00:13:01Z,42.805,6.029,13.3011,4.60057,2470.646,2022-8-16T02:14:50Z
2022-08-16T00:16:04Z,42.805,6.029,13.3012,4.60059,2470.661,2022-8-16T02:17:54Z
2022-08-16T00:19:07Z,42.805,6.029,13.3012,4.60059,2470.646,2022-8-16T02:20:57Z
2022-08-16T00:22:10Z,42.805,6.029,13.3019,4.60060,2470.646,2022-8-16T02:24:00Z
2022-08-16T00:25:13Z,42.805,6.029,13.3015,4.60058,2470.684,2022-8-16T02:27:03Z
2022-08-16T00:28:17Z,42.805,6.029,13.3015,4.60062,2470.661,2022-8-16T02:30:06Z
2022-08-16T00:31:20Z,42.805,6.029,13.3014,4.60058,2470.67,2022-8-16T02:33:09Z
2022-08-16T00:34:23Z,42.805,6.029,13.3011,4.60069,2470.624,2022-8-16T02:36:12Z
2022-08-16T00:37:26Z,42.805,6.029,13.3010,4.60062,2470.614,2022-8-16T02:39:15Z
2022-08-16T00:40:29Z,42.805,6.029,13.3016,4.60056,2470.646,2022-8-16T02:42:18Z
2022-08-16T00:43:32Z,42.805,6.029,13.3014,4.60057,2470.661,2022-8-16T02:45:22Z
2022-08-16T00:46:35Z,42.805,6.029,13.3010,4.60053,2470.624,2022-8-16T02:48:25Z
2022-08-16T00:49:38Z,42.805,6.029,13.3010,4.60053,2470.637,2022-8-16T02:51:28Z
2022-08-16T00:52:42Z,42.805,6.029,13.3009,4.60055,2470.637,2022-8-16T02:54:31Z
2022-08-16T00:55:45Z,42.805,6.029,13.3013,4.60060,2470.6,2022-8-16T02:57:34Z
2022-08-16T00:58:48Z,42.805,6.029,13.3013,4.60057,2470.624,2022-8-16T03:00:37Z
2022-08-16T01:01:51Z,42.805,6.029,13.3014,4.60056,2470.624,2022-8-16T03:03:40Z
2022-08-16T01:04:54Z,42.805,6.029,13.3010,4.60055,2470.637,2022-8-16T03:06:43Z
2022-08-16T01:07:57Z,42.805,6.029,13.3013,4.60056,2470.614,2022-8-16T03:09:46Z
2022-08-16T01:11:00Z,42.805,6.029,13.3011,4.60057,2470.6,2022-8-16T03:12:50Z
2022-08-16T01:14:03Z,42.805,6.029,13.3010,4.60055,2470.6,2022-8-16T03:15:53Z
2022-08-16T01:17:07Z,42.805,6.029,13.3014,4.60054,2470.6,2022-8-16T03:18:56Z
2022-08-16T01:20:10Z,42.805,6.029,13.3008,4.60057,2470.591,2022-8-16T03:21:59Z
2022-08-16T01:23:13Z,42.805,6.029,13.3014,4.60056,2470.646,2022-8-16T03:25:02Z
2022-08-16T01:26:16Z,42.805,6.029,13.3011,4.60056,2470.577,2022-8-16T03:28:05Z
2022-08-16T01:29:19Z,42.805,6.029,13.3011,4.60055,2470.577,2022-8-16T03:31:08Z
2022-08-16T01:32:22Z,42.805,6.029,13.3012,4.60055,2470.577,2022-8-16T03:34:11Z
2022-08-16T01:35:25Z,42.805,6.029,13.3012,4.60055,2470.577,2022-8-16T03:37:15Z
2022-08-16T01:38:28Z,42.805,6.029,13.3014,4.60053,2470.614,2022-8-16T03:40:18Z
2022-08-16T01:41:31Z,42.805,6.029,13.3013,4.60053,2470.577,2022-8-16T03:43:21Z
2022-08-16T01:44:35Z,42.805,6.029,13.3010,4.60055,2470.6,2022-8-16T03:46:24Z
2022-08-16T01:47:38Z,42.805,6.029,13.3011,4.60052,2470.577,2022-8-16T03:49:27Z
2022-08-16T01:50:41Z,42.805,6.029,13.3008,4.60054,2470.614,2022-8-16T03:52:30Z
2022-08-16T01:53:44Z,42.805,6.029,13.3009,4.60054,2470.553,2022-8-16T03:55:33Z
2022-08-16T01:56:47Z,42.805,6.029,13.3014,4.60054,2470.553,2022-8-16T03:58:36Z
2022-08-16T01:59:50Z,42.805,6.029,13.3011,4.60054,2470.591,2022-8-16T04:01:40Z
2022-08-16T02:02:53Z,42.805,6.029,13.3011,4.60052,2470.577,2022-8-16T04:04:43Z
2022-08-16T02:05:56Z,42.805,6.029,13.3013,4.60054,2470.553,2022-8-16T04:07:46Z
2022-08-16T02:09:00Z,42.805,6.029,13.3013,4.60052,2470.577,2022-8-16T04:10:49Z
2022-08-16T02:12:03Z,42.805,6.029,13.3009,4.60053,2470.577,2022-8-16T04:13:52Z
2022-08-16T02:15:06Z,42.805,6.029,13.3011,4.60056,2470.553,2022-8-16T04:16:55Z
2022-08-16T02:18:09Z,42.805,6.029,13.3014,4.60055,2470.577,2022-8-16T04:19:58Z
2022-08-16T02:21:12Z,42.805,6.029,13.3010,4.60053,2470.577,2022-8-16T04:23:01Z
2022-08-16T02:24:15Z,42.805,6.029,13.3015,4.60055,2470.53,2022-8-16T04:26:04Z
2022-08-16T02:27:18Z,42.805,6.029,13.3012,4.60054,2470.553,2022-8-16T04:29:08Z
2022-08-16T02:30:21Z,42.805,6.029,13.3010,4.60054,2470.567,2022-8-16T04:32:11Z
2022-08-16T02:33:25Z,42.805,6.029,13.3011,4.60057,2470.591,2022-8-16T04:35:14Z
2022-08-16T02:36:28Z,42.805,6.029,13.3012,4.60054,2470.544,2022-8-16T04:38:17Z
2022-08-16T02:39:31Z,42.805,6.029,13.3012,4.60059,2470.53,2022-8-16T04:41:20Z
2022-08-16T02:42:34Z,42.805,6.029,13.3013,4.60056,2470.53,2022-8-16T04:44:23Z
2022-08-16T02:45:37Z,42.805,6.029,13.3015,4.60054,2470.53,2022-8-16T04:47:26Z
2022-08-16T02:48:40Z,42.805,6.029,13.3011,4.60055,2470.53,2022-8-16T04:50:29Z
2022-08-16T02:51:43Z,42.805,6.029,13.3011,4.60053,2470.553,2022-8-16T04:53:33Z
2022-08-16T02:54:46Z,42.805,6.029,13.3008,4.60052,2470.53,2022-8-16T04:56:36Z
2022-08-16T02:57:50Z,42.805,6.029,13.3014,4.60054,2470.553,2022-8-16T04:59:39Z
2022-08-16T03:00:53Z,42.805,6.029,13.3011,4.60053,2470.567,2022-8-16T05:02:42Z
2022-08-16T03:03:56Z,42.805,6.029,13.3015,4.60052,2470.53,2022-8-16T05:05:45Z
2022-08-16T03:06:59Z,42.805,6.029,13.3011,4.60052,2470.507,2022-8-16T05:08:48Z
2022-08-16T03:10:02Z,42.805,6.029,13.3014,4.60055,2470.52,2022-8-16T05:11:51Z
2022-08-16T03:13:05Z,42.805,6.029,13.3013,4.60055,2470.507,2022-8-16T05:14:54Z
2022-08-16T03:16:08Z,42.805,6.029,13.3010,4.60055,2470.507,2022-8-16T05:17:58Z
2022-08-16T03:19:11Z,42.805,6.029,13.3012,4.60054,2470.567,2022-8-16T05:21:01Z
2022-08-16T03:22:14Z,42.805,6.029,13.3014,4.60052,2470.544,2022-8-16T05:24:04Z
2022-08-16T03:25:18Z,42.805,6.029,13.3010,4.60053,2470.53,2022-8-16T05:27:07Z
2022-08-16T03:28:21Z,42.805,6.029,13.3010,4.60056,2470.567,2022-8-16T05:30:10Z
2022-08-16T03:31:24Z,42.805,6.029,13.3012,4.60054,2470.53,2022-8-16T05:33:13Z
2022-08-16T03:34:27Z,42.805,6.029,13.3011,4.60054,2470.53,2022-8-16T05:36:16Z
2022-08-16T03:37:30Z,42.805,6.029,13.3011,4.60054,2470.53,2022-8-16T05:39:19Z
2022-08-16T03:40:33Z,42.805,6.029,13.3012,4.60052,2470.52,2022-8-16T05:42:23Z
2022-08-16T03:43:36Z,42.805,6.029,13.3014,4.60056,2470.516,2022-8-16T05:45:26Z
2022-08-16T03:46:39Z,42.805,6.029,13.3014,4.60056,2470.507,2022-8-16T05:48:29Z
2022-08-16T03:49:43Z,42.805,6.029,13.3011,4.60057,2470.507,2022-8-16T05:51:32Z
2022-08-16T03:52:46Z,42.805,6.029,13.3013,4.60053,2470.52,2022-8-16T05:54:35Z
2022-08-16T03:55:49Z,42.805,6.029,13.3011,4.60059,2470.52,2022-8-16T05:57:38Z
2022-08-16T03:58:52Z,42.805,6.029,13.3012,4.60055,2470.52,2022-8-16T06:00:41Z
2022-08-16T04:01:55Z,42.805,6.029,13.3009,4.60056,2470.53,2022-8-16T06:03:44Z
2022-08-16T04:04:58Z,42.805,6.029,13.3012,4.60054,2470.483,2022-8-16T06:06:48Z
2022-08-16T04:08:01Z,42.805,6.029,13.3014,4.60053,2470.507,2022-8-16T06:09:51Z
2022-08-16T04:11:04Z,42.805,6.029,13.3009,4.60052,2470.544,2022-8-16T06:12:54Z
2022-08-16T04:14:08Z,42.805,6.029,13.3010,4.60060,2470.497,2022-8-16T06:15:57Z
2022-08-16T04:17:11Z,42.805,6.029,13.3009,4.60054,2470.544,2022-8-16T06:19:00Z
2022-08-16T04:20:14Z,42.805,6.029,13.3012,4.60054,2470.507,2022-8-16T06:22:03Z
2022-08-16T04:23:17Z,42.805,6.029,13.3014,4.60057,2470.53,2022-8-16T06:25:06Z
2022-08-16T04:26:20Z,42.805,6.029,13.3011,4.60058,2470.52,2022-8-16T06:28:09Z
2022-08-16T04:29:23Z,42.805,6.029,13.3011,4.60054,2470.507,2022-8-16T06:31:13Z
2022-08-16T04:32:26Z,42.805,6.029,13.3010,4.60052,2470.483,2022-8-16T06:34:16Z
2022-08-16T04:35:29Z,42.805,6.029,13.3012,4.60054,2470.52,2022-8-16T06:37:19Z
2022-08-16T04:38:33Z,42.805,6.029,13.3014,4.60056,2470.53,2022-8-16T06:40:22Z
2022-08-16T04:41:36Z,42.805,6.029,13.3017,4.60054,2470.507,2022-8-16T06:43:25Z
2022-08-16T04:44:39Z,42.805,6.029,13.3015,4.60055,2470.497,2022-8-16T06:46:28Z
2022-08-16T04:47:42Z,42.805,6.029,13.3012,4.60055,2470.507,2022-8-16T06:49:31Z
2022-08-16T04:50:45Z,42.805,6.029,13.3013,4.60055,2470.544,2022-8-16T06:52:34Z
2022-08-16T04:53:48Z,42.805,6.029,13.3012,4.60055,2470.497,2022-8-16T06:55:37Z
2022-08-16T04:56:51Z,42.805,6.029,13.3013,4.60053,2470.507,2022-8-16T06:58:41Z
2022-08-16T04:59:54Z,42.805,6.029,13.3011,4.60058,2470.507,2022-8-16T07:01:44Z
2022-08-16T05:02:58Z,42.805,6.029,13.3011,4.60053,2470.47,2022-8-16T07:04:47Z
2022-08-16T05:06:01Z,42.805,6.029,13.3011,4.60055,2470.52,2022-8-16T07:07:50Z
2022-08-16T05:09:04Z,42.805,6.029,13.3010,4.60052,2470.53,2022-8-16T07:10:53Z
2022-08-16T05:12:07Z,42.805,6.029,13.3011,4.60054,2470.52,2022-8-16T07:13:56Z
2022-08-16T05:15:10Z,42.805,6.029,13.3009,4.60054,2470.507,2022-8-16T07:16:59Z
2022-08-16T05:18:13Z,42.805,6.029,13.3009,4.60053,2470.507,2022-8-16T07:20:02Z
2022-08-16T05:21:16Z,42.805,6.029,13.3011,4.60057,2470.497,2022-8-16T07:23:06Z
2022-08-16T05:24:19Z,42.805,6.029,13.3011,4.60057,2470.507,2022-8-16T07:26:09Z
2022-08-16T05:27:22Z,42.805,6.029,13.3014,4.60052,2470.483,2022-8-16T07:29:12Z
2022-08-16T05:30:26Z,42.805,6.029,13.3013,4.60055,2470.52,2022-8-16T07:32:15Z
2022-08-16T05:33:29Z,42.805,6.029,13.3011,4.60055,2470.507,2022-8-16T07:35:18Z
2022-08-16T05:36:32Z,42.805,6.029,13.3012,4.60054,2470.507,2022-8-16T07:38:21Z
2022-08-16T05:39:35Z,42.805,6.029,13.3011,4.60057,2470.483,2022-8-16T07:41:24Z
2022-08-16T05:42:38Z,42.805,6.029,13.3012,4.60061,2470.53,2022-8-16T07:44:27Z
2022-08-16T05:45:41Z,42.805,6.029,13.3016,4.60054,2470.544,2022-8-16T07:47:31Z
2022-08-16T05:48:44Z,42.805,6.029,13.3008,4.60053,2470.567,2022-8-16T07:50:34Z
2022-08-16T05:51:47Z,42.805,6.029,13.3012,4.60054,2470.544,2022-8-16T07:53:37Z
2022-08-16T05:54:51Z,42.805,6.029,13.3009,4.60052,2470.544,2022-8-16T07:56:40Z
2022-08-16T05:57:54Z,42.805,6.029,13.3014,4.60054,2470.52,2022-8-16T07:59:43Z
2022-08-16T06:00:57Z,42.805,6.029,13.3011,4.60056,2470.483,2022-8-16T08:02:46Z
2022-08-16T06:04:00Z,42.805,6.029,13.3014,4.60052,2470.544,2022-8-16T08:05:49Z
2022-08-16T06:07:03Z,42.805,6.029,13.3011,4.60051,2470.53,2022-8-16T08:08:52Z
2022-08-16T06:10:06Z,42.805,6.029,13.3011,4.60052,2470.53,2022-8-16T08:11:56Z
2022-08-16T06:13:09Z,42.805,6.029,13.3006,4.60053,2470.53,2022-8-16T08:14:59Z
2022-08-16T06:16:12Z,42.805,6.029,13.3011,4.60056,2470.497,2022-8-16T08:18:02Z
2022-08-16T06:19:16Z,42.805,6.029,13.3015,4.60054,2470.567,2022-8-16T08:21:05Z
2022-08-16T06:22:19Z,42.805,6.029,13.3009,4.60053,2470.483,2022-8-16T08:24:08Z
2022-08-16T06:25:22Z,42.805,6.029,13.3011,4.60054,2470.53,2022-8-16T08:27:11Z
2022-08-16T06:28:25Z,42.805,6.029,13.3010,4.60057,2470.507,2022-8-16T08:30:14Z
2022-08-16T06:31:28Z,42.805,6.029,13.3013,4.60055,2470.52,2022-8-16T08:33:17Z
2022-08-16T06:34:31Z,42.805,6.029,13.3009,4.60055,2470.544,2022-8-16T08:36:21Z
2022-08-16T06:37:34Z,42.805,6.029,13.3011,4.60055,2470.553,2022-8-16T08:39:24Z
2022-08-16T06:40:37Z,42.805,6.029,13.3011,4.60055,2470.553,2022-8-16T08:42:27Z
2022-08-16T06:43:41Z,42.805,6.029,13.3012,4.60057,2470.544,2022-8-16T08:45:30Z
2022-08-16T06:46:44Z,42.805,6.029,13.3011,4.60055,2470.507,2022-8-16T08:48:33Z
2022-08-16T06:49:47Z,42.805,6.029,13.3009,4.60053,2470.52,2022-8-16T08:51:36Z
2022-08-16T06:52:50Z,42.805,6.029,13.3010,4.60053,2470.53,2022-8-16T08:54:39Z
2022-08-16T06:55:53Z,42.805,6.029,13.3010,4.60054,2470.544,2022-8-16T08:57:42Z
2022-08-16T06:58:56Z,42.805,6.029,13.3011,4.60056,2470.544,2022-8-16T09:00:46Z
2022-08-16T07:01:59Z,42.805,6.029,13.3013,4.60056,2470.553,2022-8-16T09:03:49Z
2022-08-16T07:05:02Z,42.805,6.029,13.3009,4.60054,2470.53,2022-8-16T09:06:52Z
2022-08-16T07:08:06Z,42.805,6.029,13.3009,4.60057,2470.553,2022-8-16T09:09:55Z
2022-08-16T07:11:09Z,42.805,6.029,13.3011,4.60058,2470.567,2022-8-16T09:12:58Z
2022-08-16T07:14:12Z,42.805,6.029,13.3012,4.60058,2470.553,2022-8-16T09:16:01Z
2022-08-16T07:17:15Z,42.805,6.029,13.3009,4.60057,2470.567,2022-8-16T09:19:04Z
2022-08-16T07:20:18Z,42.805,6.029,13.3016,4.60052,2470.553,2022-8-16T09:22:07Z
2022-08-16T07:23:21Z,42.805,6.029,13.3010,4.60057,2470.567,2022-8-16T09:25:10Z
2022-08-16T07:26:24Z,42.805,6.029,13.3012,4.60054,2470.591,2022-8-16T09:28:14Z
2022-08-16T07:29:27Z,42.805,6.029,13.3011,4.60056,2470.577,2022-8-16T09:31:17Z
2022-08-16T07:32:30Z,42.805,6.029,13.3014,4.60054,2470.577,2022-8-16T09:34:20Z
2022-08-16T07:35:34Z,42.805,6.029,13.3011,4.60055,2470.577,2022-8-16T09:37:23Z
2022-08-16T07:38:37Z,42.805,6.029,13.3013,4.60057,2470.614,2022-8-16T09:40:26Z
2022-08-16T07:41:40Z,42.805,6.029,13.3011,4.60061,2470.577,2022-8-16T09:43:29Z
2022-08-16T07:44:43Z,42.805,6.029,13.3015,4.60057,2470.539,2022-8-16T09:46:32Z
2022-08-16T07:47:46Z,42.805,6.029,13.3012,4.60056,2470.577,2022-8-16T09:49:35Z
2022-08-16T07:50:49Z,42.805,6.029,13.3012,4.60055,2470.6,2022-8-16T09:52:39Z
2022-08-16T07:53:52Z,42.805,6.029,13.3012,4.60057,2470.591,2022-8-16T09:55:42Z
2022-08-16T07:56:55Z,42.805,6.029,13.3011,4.60054,2470.614,2022-8-16T09:58:45Z
2022-08-16T07:59:59Z,42.805,6.029,13.3013,4.60056,2470.637,2022-8-16T10:01:48Z
2022-08-16T08:03:02Z,42.805,6.029,13.3014,4.60060,2470.591,2022-8-16T10:04:51Z
2022-08-16T08:06:05Z,42.805,6.029,13.3012,4.60056,2470.614,2022-8-16T10:07:54Z
2022-08-16T08:09:08Z,42.805,6.029,13.3013,4.60055,2470.637,2022-8-16T10:10:57Z
2022-08-16T08:12:11Z,42.805,6.029,13.3011,4.60053,2470.6,2022-8-16T10:14:00Z
2022-08-16T08:15:14Z,42.805,6.029,13.3014,4.60053,2470.614,2022-8-16T10:17:04Z
2022-08-16T08:18:17Z,42.805,6.029,13.3012,4.60053,2470.6,2022-8-16T10:20:07Z
2022-08-16T08:21:20Z,42.805,6.029,13.3014,4.60057,2470.614,2022-8-16T10:23:10Z
2022-08-16T08:24:24Z,42.805,6.029,13.3013,4.60054,2470.614,2022-8-16T10:26:13Z
2022-08-16T08:27:27Z,42.805,6.029,13.3009,4.60054,2470.6,2022-8-16T10:29:16Z
2022-08-16T08:30:30Z,42.805,6.029,13.3009,4.60055,2470.6,2022-8-16T10:32:19Z
2022-08-16T08:33:33Z,42.805,6.029,13.3011,4.60055,2470.624,2022-8-16T10:35:22Z
2022-08-16T08:36:36Z,42.805,6.029,13.3011,4.60057,2470.577,2022-8-16T10:38:25Z
2022-08-16T08:39:39Z,42.805,6.029,13.3014,4.60057,2470.6,2022-8-16T10:41:29Z
2022-08-16T08:42:42Z,42.805,6.029,13.3008,4.60054,2470.624,2022-8-16T10:44:32Z
2022-08-16T08:45:46Z,42.805,6.029,13.3011,4.60053,2470.646,2022-8-16T10:47:35Z
2022-08-16T08:48:49Z,42.805,6.029,13.3009,4.60056,2470.661,2022-8-16T10:50:38Z
2022-08-16T08:51:52Z,42.805,6.029,13.3014,4.60059,2470.614,2022-8-16T10:53:41Z
2022-08-16T08:54:55Z,42.805,6.029,13.3009,4.60057,2470.624,2022-8-16T10:56:44Z
2022-08-16T08:57:58Z,42.805,6.029,13.3013,4.60055,2470.646,2022-8-16T10:59:47Z
2022-08-16T09:01:01Z,42.805,6.029,13.3011,4.60053,2470.577,2022-8-16T11:02:50Z
2022-08-16T09:04:04Z,42.805,6.029,13.3009,4.60053,2470.614,2022-8-16T11:05:54Z
2022-08-16T09:07:07Z,42.805,6.029,13.3013,4.60056,2470.661,2022-8-16T11:08:57Z
2022-08-16T09:10:10Z,42.805,6.029,13.3009,4.60056,2470.624,2022-8-16T11:12:00Z
2022-08-16T09:13:14Z,42.805,6.029,13.3011,4.60052,2470.646,2022-8-16T11:15:03Z
2022-08-16T09:16:17Z,42.805,6.029,13.3017,4.60052,2470.646,2022-8-16T11:18:06Z
2022-08-16T09:19:20Z,42.805,6.029,13.3013,4.60057,2470.637,2022-8-16T11:21:09Z
2022-08-16T09:22:23Z,42.805,6.029,13.3009,4.60057,2470.624,2022-8-16T11:24:12Z
2022-08-16T09:25:26Z,42.805,6.029,13.3013,4.60059,2470.67,2022-8-16T11:27:15Z
2022-08-16T09:28:29Z,42.805,6.029,13.3011,4.60057,2470.661,2022-8-16T11:30:19Z
2022-08-16T09:31:32Z,42.805,6.029,13.3013,4.60059,2470.624,2022-8-16T11:33:22Z
2022-08-16T09:34:36Z,42.805,6.029,13.3014,4.60055,2470.646,2022-8-16T11:36:25Z
2022-08-16T09:37:39Z,42.805,6.029,13.3014,4.60055,2470.624,2022-8-16T11:39:28Z
2022-08-16T09:40:42Z,42.805,6.029,13.3009,4.60053,2470.646,2022-8-16T11:42:31Z
2022-08-16T09:43:45Z,42.805,6.029,13.3011,4.60053,2470.624,2022-8-16T11:45:34Z
2022-08-16T09:46:48Z,42.805,6.029,13.3014,4.60054,2470.67,2022-8-16T11:48:37Z
2022-08-16T09:49:51Z,42.805,6.029,13.3013,4.60055,2470.624,2022-8-16T11:51:41Z
2022-08-16T09:52:54Z,42.805,6.029,13.3013,4.60053,2470.646,2022-8-16T11:54:44Z
2022-08-16T09:55:57Z,42.805,6.029,13.3009,4.60056,2470.67,2022-8-16T11:57:47Z
2022-08-16T09:59:01Z,42.805,6.029,13.3011,4.60054,2470.614,2022-8-16T12:00:50Z
2022-08-16T10:02:04Z,42.805,6.029,13.3011,4.60055,2470.646,2022-8-16T12:03:53Z
2022-08-16T10:05:07Z,42.805,6.029,13.3011,4.60060,2470.661,2022-8-16T12:06:56Z
2022-08-16T10:08:10Z,42.805,6.029,13.3011,4.60057,2470.661,2022-8-16T12:09:59Z
2022-08-16T10:11:13Z,42.805,6.029,13.3009,4.60055,2470.661,2022-8-16T12:13:02Z
2022-08-16T10:14:16Z,42.805,6.029,13.3011,4.60056,2470.646,2022-8-16T12:16:05Z
2022-08-16T10:17:19Z,42.805,6.029,13.3014,4.60054,2470.646,2022-8-16T12:19:09Z
2022-08-16T10:20:22Z,42.805,6.029,13.3011,4.60066,2470.624,2022-8-16T12:22:12Z
2022-08-16T10:23:26Z,42.805,6.029,13.3010,4.60058,2470.661,2022-8-16T12:25:15Z
2022-08-16T10:26:29Z,42.805,6.029,13.3011,4.60053,2470.67,2022-8-16T12:28:18Z
2022-08-16T10:29:32Z,42.805,6.029,13.3006,4.60054,2470.637,2022-8-16T12:31:21Z
2022-08-16T10:32:35Z,42.805,6.029,13.3013,4.60055,2470.646,2022-8-16T12:34:24Z
2022-08-16T10:35:38Z,42.805,6.029,13.3012,4.60054,2470.624,2022-8-16T12:37:27Z
2022-08-16T10:38:41Z,42.805,6.029,13.3015,4.60054,2470.624,2022-8-16T12:40:31Z
2022-08-16T10:41:44Z,42.805,6.029,13.3012,4.60054,2470.661,2022-8-16T12:43:34Z
2022-08-16T10:44:47Z,42.805,6.029,13.3010,4.60052,2470.624,2022-8-16T12:46:37Z
2022-08-16T10:47:51Z,42.805,6.029,13.3011,4.60054,2470.67,2022-8-16T12:49:40Z
2022-08-16T10:50:54Z,42.805,6.029,13.3014,4.60054,2470.661,2022-8-16T12:52:43Z
2022-08-16T10:53:57Z,42.805,6.029,13.3010,4.60058,2470.67,2022-8-16T12:55:46Z
2022-08-16T10:57:00Z,42.805,6.029,13.3015,4.60054,2470.67,2022-8-16T12:58:49Z
2022-08-16T11:00:03Z,42.805,6.029,13.3011,4.60057,2470.646,2022-8-16T13:01:52Z
2022-08-16T11:03:06Z,42.805,6.029,13.3014,4.60057,2470.624,2022-8-16T13:04:56Z
2022-08-16T11:06:09Z,42.805,6.029,13.3011,4.60053,2470.646,2022-8-16T13:07:59Z
2022-08-16T11:09:12Z,42.805,6.029,13.3011,4.60055,2470.614,2022-8-16T13:11:02Z
2022-08-16T11:12:16Z,42.805,6.029,13.3012,4.60056,2470.646,2022-8-16T13:14:05Z
2022-08-16T11:15:19Z,42.805,6.029,13.3011,4.60055,2470.624,2022-8-16T13:17:08Z
2022-08-16T11:18:22Z,42.805,6.029,13.3011,4.60055,2470.637,2022-8-16T13:20:11Z
2022-08-16T11:21:25Z,42.805,6.029,13.3014,4.60052,2470.646,2022-8-16T13:23:14Z
2022-08-16T11:24:28Z,42.805,6.029,13.3008,4.60054,2470.6,2022-8-16T13:26:17Z
2022-08-16T11:27:31Z,42.805,6.029,13.3006,4.60055,2470.637,2022-8-16T13:29:21Z
2022-08-16T11:30:34Z,42.805,6.029,13.3009,4.60053,2470.624,2022-8-16T13:32:24Z
2022-08-16T11:33:37Z,42.805,6.029,13.3010,4.60052,2470.6,2022-8-16T13:35:27Z
2022-08-16T11:36:41Z,42.805,6.029,13.3011,4.60052,2470.661,2022-8-16T13:38:30Z
2022-08-16T11:39:44Z,42.805,6.029,13.3014,4.60052,2470.6,2022-8-16T13:41:33Z
2022-08-16T11:42:47Z,42.805,6.029,13.3013,4.60053,2470.624,2022-8-16T13:44:36Z
2022-08-16T11:45:50Z,42.805,6.029,13.3011,4.60056,2470.6,2022-8-16T13:47:39Z
2022-08-16T11:48:53Z,42.805,6.029,13.3013,4.60052,2470.6,2022-8-16T13:50:42Z
2022-08-16T11:51:56Z,42.805,6.029,13.3010,4.60056,2470.6,2022-8-16T13:53:46Z
2022-08-16T11:54:59Z,42.805,6.029,13.3009,4.60058,2470.624,2022-8-16T13:56:49Z
2022-08-16T11:58:02Z,42.805,6.029,13.3009,4.60052,2470.661,2022-8-16T13:59:52Z
2022-08-16T12:01:06Z,42.805,6.029,13.3009,4.60052,2470.6,2022-8-16T14:02:55Z
2022-08-16T12:04:09Z,42.805,6.029,13.3009,4.60054,2470.637,2022-8-16T14:05:58Z
2022-08-16T12:07:12Z,42.805,6.029,13.3012,4.60054,2470.577,2022-8-16T14:09:01Z
2022-08-16T12:10:15Z,42.805,6.029,13.3010,4.60054,2470.6,2022-8-16T14:12:04Z
2022-08-16T12:13:18Z,42.805,6.029,13.3012,4.60053,2470.6,2022-8-16T14:15:07Z
2022-08-16T12:16:21Z,42.805,6.029,13.3011,4.60054,2470.577,2022-8-16T14:18:11Z
2022-08-16T12:19:24Z,42.805,6.029,13.3011,4.60054,2470.614,2022-8-16T14:21:14Z
2022-08-16T12:22:27Z,42.805,6.029,13.3010,4.60058,2470.6,2022-8-16T14:24:17Z
2022-08-16T12:25:31Z,42.805,6.029,13.3015,4.60062,2470.577,2022-8-16T14:27:20Z
2022-08-16T12:28:34Z,42.805,6.029,13.3007,4.60056,2470.6,2022-8-16T14:30:23Z
2022-08-16T12:31:37Z,42.805,6.029,13.3013,4.60057,2470.6,2022-8-16T14:33:26Z
2022-08-16T12:34:40Z,42.805,6.029,13.3011,4.60054,2470.577,2022-8-16T14:36:29Z
2022-08-16T12:37:43Z,42.805,6.029,13.3011,4.60054,2470.6,2022-8-16T14:39:32Z
2022-08-16T12:40:46Z,42.805,6.029,13.3012,4.60055,2470.577,2022-8-16T14:42:36Z
2022-08-16T12:43:49Z,42.805,6.029,13.3014,4.60054,2470.577,2022-8-16T14:45:39Z
2022-08-16T12:46:52Z,42.805,6.029,13.3011,4.60053,2470.591,2022-8-16T14:48:42Z
2022-08-16T12:49:56Z,42.805,6.029,13.3013,4.60053,2470.577,2022-8-16T14:51:45Z
2022-08-16T12:52:59Z,42.805,6.029,13.3011,4.60054,2470.577,2022-8-16T14:54:48Z
2022-08-16T12:56:02Z,42.805,6.029,13.3009,4.60054,2470.577,2022-8-16T14:57:51Z
2022-08-16T12:59:05Z,42.805,6.029,13.3009,4.60057,2470.567,2022-8-16T15:00:54Z
2022-08-16T13:02:08Z,42.805,6.029,13.3014,4.60055,2470.553,2022-8-16T15:03:57Z
2022-08-16T13:05:11Z,42.805,6.029,13.3010,4.60056,2470.577,2022-8-16T15:07:01Z
2022-08-16T13:08:14Z,42.805,6.029,13.3006,4.60055,2470.591,2022-8-16T15:10:04Z
2022-08-16T13:11:17Z,42.805,6.029,13.3014,4.60055,2470.567,2022-8-16T15:13:07Z
2022-08-16T13:14:21Z,42.805,6.029,13.3014,4.60054,2470.591,2022-8-16T15:16:10Z
2022-08-16T13:17:24Z,42.805,6.029,13.3009,4.60052,2470.567,2022-8-16T15:19:13Z
2022-08-16T13:20:27Z,42.805,6.029,13.3010,4.60057,2470.577,2022-8-16T15:22:16Z
2022-08-16T13:23:30Z,42.805,6.029,13.3008,4.60059,2470.53,2022-8-16T15:25:19Z
2022-08-16T13:26:33Z,42.805,6.029,13.3013,4.60053,2470.553,2022-8-16T15:28:22Z
2022-08-16T13:29:36Z,42.805,6.029,13.3010,4.60052,2470.567,2022-8-16T15:31:26Z
2022-08-16T13:32:39Z,42.805,6.029,13.3013,4.60050,2470.53,2022-8-16T15:34:29Z
2022-08-16T13:35:42Z,42.805,6.029,13.3009,4.60052,2470.544,2022-8-16T15:37:32Z
2022-08-16T13:38:46Z,42.805,6.029,13.3010,4.60052,2470.53,2022-8-16T15:40:35Z
2022-08-16T13:41:49Z,42.805,6.029,13.3011,4.60053,2470.567,2022-8-16T15:43:38Z
2022-08-16T13:44:52Z,42.805,6.029,13.3008,4.60052,2470.53,2022-8-16T15:46:41Z
2022-08-16T13:47:55Z,42.805,6.029,13.3013,4.60052,2470.544,2022-8-16T15:49:44Z
2022-08-16T13:50:58Z,42.805,6.029,13.3010,4.60054,2470.544,2022-8-16T15:52:47Z
2022-08-16T13:54:01Z,42.805,6.029,13.3006,4.60052,2470.53,2022-8-16T15:55:51Z
2022-08-16T13:57:04Z,42.805,6.029,13.3011,4.60052,2470.544,2022-8-16T15:58:54Z
2022-08-16T14:00:08Z,42.805,6.029,13.3009,4.60054,2470.544,2022-8-16T16:01:57Z
2022-08-16T14:03:11Z,42.805,6.029,13.3014,4.60052,2470.553,2022-8-16T16:05:00Z
2022-08-16T14:06:14Z,42.805,6.029,13.3009,4.60054,2470.53,2022-8-16T16:08:03Z
2022-08-16T14:09:17Z,42.805,6.029,13.3011,4.60057,2470.53,2022-8-16T16:11:06Z
2022-08-16T14:12:20Z,42.805,6.029,13.3014,4.60052,2470.53,2022-8-16T16:14:09Z
2022-08-16T14:15:23Z,42.805,6.029,13.3008,4.60051,2470.553,2022-8-16T16:17:12Z
2022-08-16T14:18:26Z,42.805,6.029,13.3011,4.60052,2470.53,2022-8-16T16:20:16Z
2022-08-16T14:21:29Z,42.805,6.029,13.3013,4.60053,2470.53,2022-8-16T16:23:19Z
2022-08-16T14:24:32Z,42.805,6.029,13.3011,4.60052,2470.544,2022-8-16T16:26:22Z
2022-08-16T14:27:36Z,42.805,6.029,13.3013,4.60052,2470.53,2022-8-16T16:29:25Z
2022-08-16T14:30:39Z,42.805,6.029,13.3011,4.60051,2470.507,2022-8-16T16:32:28Z
2022-08-16T14:33:42Z,42.805,6.029,13.3009,4.60052,2470.507,2022-8-16T16:35:31Z
2022-08-16T14:36:45Z,42.805,6.029,13.3009,4.60052,2470.567,2022-8-16T16:38:34Z
2022-08-16T14:39:48Z,42.805,6.029,13.3011,4.60053,2470.507,2022-8-16T16:41:38Z
2022-08-16T14:42:51Z,42.805,6.029,13.3008,4.60054,2470.52,2022-8-16T16:44:41Z
2022-08-16T14:45:54Z,42.805,6.029,13.3014,4.60057,2470.567,2022-8-16T16:47:44Z
2022-08-16T14:48:58Z,42.805,6.029,13.3007,4.60052,2470.52,2022-8-16T16:50:47Z
2022-08-16T14:52:01Z,42.805,6.029,13.3009,4.60051,2470.53,2022-8-16T16:53:50Z
2022-08-16T14:55:04Z,42.805,6.029,13.3014,4.60052,2470.507,2022-8-16T16:56:53Z
2022-08-16T14:58:07Z,42.805,6.029,13.3012,4.60052,2470.577,2022-8-16T16:59:56Z
2022-08-16T15:01:10Z,42.805,6.029,13.3012,4.60051,2470.52,2022-8-16T17:02:59Z
2022-08-16T15:04:13Z,42.805,6.029,13.3011,4.60051,2470.553,2022-8-16T17:06:03Z
2022-08-16T15:07:16Z,42.805,6.029,13.3011,4.60051,2470.567,2022-8-16T17:09:06Z
2022-08-16T15:10:19Z,42.805,6.029,13.3012,4.60053,2470.507,2022-8-16T17:12:09Z
2022-08-16T15:13:22Z,42.805,6.029,13.3009,4.60052,2470.53,2022-8-16T17:15:12Z